Change the Weather History Date:

Friday, May 3, 2013

  Actual Average Record
Temperature  
Mean Temperature 57 °F 63 °F  
Max Temperature 61 °F 72 °F 92 °F (1965)
Min Temperature 52 °F 54 °F 39 °F (1963)
Degree Days  
Heating Degree Days 8 4  
Month to date heating degree days 23 12  
Since 1 July heating degree days 3222 3312  
Cooling Degree Days 0 2  
Month to date cooling degree days 0 6  
Year to date cooling degree days 66 50  
Growing Degree Days 6 (Base 50)    
Moisture  
Dew Point 48 °F    
Average Humidity 74    
Maximum Humidity 93    
Minimum Humidity 55    
Precipitation  
Precipitation 0.00 in 0.11 in 1.15 in (1972)
Month to date precipitation 0.09 0.31  
Year to date precipitation 13.36 13.92  
Snow  
Snow 0.00 in 0.00 in 0.00 in (2002)
Month to date snowfall 0.0 0.0  
Since 1 July snowfall 1.8 5.8  
Snow Depth 0.00 in    
Sea Level Pressure  
Sea Level Pressure 30.28 in    
Wind  
Wind Speed 16 mph (NE)    
Max Wind Speed 25 mph    
Max Gust Speed 35 mph    
Visibility 10 miles    
Events      
T = Trace of Precipitation, MM = Missing Value Source: NWS Daily Summary

Daily Weather History Graph

Daily Weather History Graph

Search for Another Location

Airport or City:

Trip Planner

Search our weather history database for the weather conditions in past years. The results will help you decide how hot, cold, wet, or windy it might be!

Date:

Astronomy

May. 03, 2013 Rise Set
Actual Time 6:08 AM EDT 7:55 PM EDT
Civil Twilight 5:40 AM EDT 8:23 PM EDT
Nautical Twilight 5:06 AM EDT 8:57 PM EDT
Astronomical Twilight 4:30 AM EDT 9:33 PM EDT
Moon 2:21 AM EDT (5/3) 1:56 PM EDT (5/3)
Length of Visible Light 14h 43m
Length of Day
13h 47m
Last Quarter, 37% of the Moon is Illuminated
May 3
Last Quarter
May 9
New
May 18
First Quarter
May 25
Full
May 31
Last Quarter

Hourly Weather History & Observations

Time (EDT) Temp. Dew Point Humidity Pressure Visibility Wind Dir Wind Speed Gust Speed Precip Events Conditions
12:51 AM 55.0 °F 51.1 °F 86% 30.29 in 10.0 mi ENE 9.2 mph - N/A   Overcast
1:17 AM 53.6 °F 51.8 °F 94% 30.27 in 10.0 mi NE 8.1 mph - N/A   Mostly Cloudy
1:37 AM 53.6 °F 50.0 °F 88% 30.26 in 10.0 mi NE 9.2 mph - N/A   Partly Cloudy
1:51 AM 54.0 °F 51.1 °F 90% 30.25 in 10.0 mi NE 9.2 mph - N/A   Partly Cloudy
2:51 AM 54.0 °F 51.1 °F 90% 30.25 in 10.0 mi NE 6.9 mph - N/A   Partly Cloudy
3:04 AM 55.4 °F 51.8 °F 88% 30.24 in 10.0 mi NE 6.9 mph - N/A   Mostly Cloudy
3:51 AM 55.0 °F 52.0 °F 89% 30.24 in 10.0 mi NE 9.2 mph - N/A   Scattered Clouds
4:04 AM 55.4 °F 51.8 °F 88% 30.24 in 10.0 mi NE 11.5 mph - N/A   Scattered Clouds
4:08 AM 55.4 °F 51.8 °F 88% 30.24 in 10.0 mi NE 8.1 mph - N/A   Mostly Cloudy
4:51 AM 55.0 °F 52.0 °F 89% 30.25 in 10.0 mi NE 10.4 mph - N/A   Overcast
5:51 AM 55.0 °F 52.0 °F 89% 30.25 in 10.0 mi NE 11.5 mph - N/A   Overcast
6:24 AM 55.4 °F 51.8 °F 88% 30.26 in 10.0 mi NE 11.5 mph - N/A   Mostly Cloudy
6:40 AM 55.4 °F 51.8 °F 88% 30.26 in 10.0 mi NE 12.7 mph - N/A   Scattered Clouds
6:51 AM 55.9 °F 52.0 °F 87% 30.26 in 10.0 mi ENE 13.8 mph 19.6 mph N/A   Partly Cloudy
7:51 AM 57.0 °F 51.1 °F 81% 30.28 in 10.0 mi ENE 13.8 mph 21.9 mph N/A   Clear
8:51 AM 57.9 °F 51.1 °F 78% 30.29 in 10.0 mi ENE 17.3 mph 24.2 mph N/A   Mostly Cloudy
9:51 AM 61.0 °F 45.0 °F 56% 30.30 in 10.0 mi ENE 15.0 mph 24.2 mph N/A   Clear
10:51 AM 57.9 °F 46.9 °F 67% 30.32 in 10.0 mi ENE 17.3 mph 28.8 mph N/A   Clear
11:51 AM 60.1 °F 50.0 °F 69% 30.33 in 10.0 mi NE 16.1 mph 21.9 mph N/A   Mostly Cloudy
12:51 PM 60.1 °F 48.0 °F 64% 30.32 in 10.0 mi ENE 18.4 mph 28.8 mph N/A   Mostly Cloudy
1:05 PM 60.8 °F 48.2 °F 63% 30.32 in 10.0 mi ENE 23.0 mph 31.1 mph N/A   Scattered Clouds
1:22 PM 59.0 °F 48.2 °F 67% 30.32 in 10.0 mi NE 21.9 mph 27.6 mph N/A   Mostly Cloudy
1:30 PM 59.0 °F 48.2 °F 67% 30.32 in 10.0 mi ENE 20.7 mph 28.8 mph N/A   Scattered Clouds
1:51 PM 59.0 °F 46.9 °F 64% 30.32 in 10.0 mi ENE 20.7 mph 29.9 mph N/A   Partly Cloudy
2:51 PM 57.9 °F 46.0 °F 65% 30.32 in 10.0 mi ENE 23.0 mph 34.5 mph N/A   Scattered Clouds
3:51 PM 57.0 °F 46.0 °F 67% 30.31 in 10.0 mi NE 19.6 mph 28.8 mph N/A   Overcast
4:51 PM 55.9 °F 46.0 °F 69% 30.29 in 10.0 mi ENE 20.7 mph 27.6 mph N/A   Mostly Cloudy
5:51 PM 54.0 °F 45.0 °F 72% 30.29 in 10.0 mi NE 19.6 mph 32.2 mph N/A   Overcast
6:51 PM 53.1 °F 45.0 °F 74% 30.28 in 10.0 mi ENE 18.4 mph 26.5 mph N/A   Overcast
7:51 PM 52.0 °F 45.0 °F 77% 30.28 in 10.0 mi NE 16.1 mph 26.5 mph N/A   Overcast
8:14 PM 51.8 °F 44.6 °F 76% 30.28 in 10.0 mi NE 17.3 mph 25.3 mph N/A   Overcast
8:51 PM 52.0 °F 45.0 °F 77% 30.29 in 10.0 mi NE 17.3 mph 24.2 mph N/A   Overcast
9:21 PM 51.8 °F 44.6 °F 76% 30.29 in 10.0 mi NE 17.3 mph 25.3 mph N/A   Overcast
9:36 PM 51.8 °F 44.6 °F 76% 30.29 in 10.0 mi NE 13.8 mph 24.2 mph N/A   Overcast
9:51 PM 52.0 °F 45.0 °F 77% 30.29 in 10.0 mi NE 17.3 mph 24.2 mph N/A   Overcast
10:51 PM 52.0 °F 45.0 °F 77% 30.29 in 10.0 mi NE 12.7 mph 25.3 mph N/A   Overcast
11:51 PM 52.0 °F 45.0 °F 77% 30.26 in 10.0 mi NE 17.3 mph 23.0 mph N/A   Overcast